GEFSNE_500_meanwind_210.txt.gz
Wind_Speed
56 56 57 57 57 57 58 58 59 58 55 54 54 55 57 58 58 58 58 59 58 59 60 60 61 60 59 58 58 57 55 55 54 53 51 51 50 50
56 57 57 57 58 58 57 57 58 57 55 53 54 54 54 55 55 56 56 56 56 56 56 58 58 58 58 57 57 57 55 54 53 53 52 51 50 48
57 57 57 57 57 57 56 56 56 55 55 53 53 52 52 52 52 53 53 52 52 52 52 54 55 56 56 55 55 54 53 52 52 52 51 49 48 47
57 57 57 57 56 55 55 54 53 53 54 52 50 48 48 48 49 49 49 50 50 49 48 49 51 52 52 53 52 51 51 50 50 49 49 48 47 44
56 56 55 55 54 53 52 51 50 50 50 49 46 44 44 44 44 45 46 46 46 46 46 46 46 48 49 49 50 49 49 47 47 47 46 46 45 44
54 54 53 52 50 49 48 47 47 47 46 44 41 39 39 39 41 42 43 43 43 44 45 44 44 45 46 46 45 46 46 45 44 43 43 43 42 42
53 52 50 48 47 46 45 44 44 42 41 39 37 36 35 35 37 38 38 40 41 41 41 41 41 41 42 42 42 42 42 42 41 41 41 41 41 41
50 49 47 46 45 43 42 41 40 39 37 36 35 35 33 32 32 33 34 35 36 36 37 37 37 37 37 37 37 37 37 37 38 37 38 38 39 39
48 46 43 42 41 40 38 37 36 36 35 35 33 32 31 30 29 29 30 31 32 33 33 32 32 32 33 33 34 34 34 35 36 36 36 36 37 37
43 40 38 37 38 37 34 33 33 32 32 32 30 29 28 28 27 26 27 28 29 28 29 29 29 28 28 29 30 31 32 33 34 34 35 35 35 35
37 36 36 36 34 33 32 30 29 28 28 27 27 27 26 26 26 25 24 23 24 24 25 25 26 26 25 26 27 29 30 31 32 32 32 33 33 33
35 34 34 32 31 31 29 28 26 25 24 22 23 23 23 23 23 22 21 21 21 22 22 23 23 24 23 24 25 26 28 29 30 31 30 30 31 32
34 32 31 30 29 28 26 24 23 20 19 18 18 18 18 18 19 19 19 19 20 21 21 21 21 22 22 22 24 25 25 26 26 26 26 27 28 28
32 30 28 27 25 23 21 19 17 15 14 14 14 14 15 15 15 16 17 17 18 17 17 18 18 19 20 21 20 21 22 22 23 23 24 25 25 25
28 26 24 22 20 19 18 15 13 12 11 11 11 12 12 12 13 14 15 16 16 17 17 16 16 17 18 17 17 18 18 19 20 20 21 21 21 21
23 22 19 17 16 15 12 11 10 11 11 11 10 11 11 11 12 14 15 14 14 14 15 15 15 16 15 15 16 15 15 16 17 17 18 18 18 18
19 17 14 13 12 10 8 7 8 9 9 9 9 10 11 11 11 13 13 13 13 13 14 14 14 14 14 13 13 13 13 14 14 14 14 15 15 15
15 13 11 9 8 6 5 5 6 7 7 7 8 8 9 10 10 11 12 12 13 13 13 13 13 12 13 13 13 12 11 10 10 11 11 12 13 14
11 10 9 8 6 5 4 4 5 6 6 7 7 7 8 9 9 9 10 10 10 11 12 12 11 11 11 11 10 10 9 9 9 9 10 11 11 12
10 9 8 7 6 5 4 5 6 6 7 7 8 7 8 8 9 9 9 10 10 10 10 9 10 10 10 9 8 8 9 9 8 8 8 8 9 9
8 7 7 6 5 5 6 6 6 7 7 7 7 8 8 9 10 9 9 10 9 9 8 8 8 8 9 9 8 8 8 8 7 7 6 6 6 6
6 6 4 4 4 5 6 6 6 6 7 7 7 8 8 9 9 9 9 9 9 8 8 7 6 7 8 8 8 8 8 8 7 6 5 5 5 4
5 4 3 4 5 6 6 6 6 6 8 8 8 8 8 9 8 9 9 9 8 7 6 6 6 6 7 8 8 8 9 7 6 6 5 6 5 5

GEFSNE_500_meanwind_216.txt.gz
Wind_Speed
56 57 58 58 58 59 60 61 62 61 58 55 55 55 55 55 56 56 57 56 56 55 55 56 56 56 56 57 57 57 57 58 58 57 56 55 54 53
58 58 58 58 58 59 59 60 61 61 58 54 54 54 54 54 54 55 54 53 53 53 54 54 55 55 55 55 55 55 56 55 54 54 55 54 53 51
58 58 58 58 58 58 58 58 59 59 57 52 52 51 52 52 51 50 51 51 51 51 51 50 50 50 51 51 52 52 53 53 52 52 52 51 52 52
58 58 58 58 57 57 57 57 57 55 53 51 49 48 49 49 48 47 47 47 47 46 46 45 45 46 46 46 47 47 48 49 49 50 50 50 50 50
58 57 57 57 56 56 56 55 53 52 51 49 48 47 47 47 46 45 44 43 43 41 40 39 40 40 40 40 42 43 44 45 46 47 47 48 48 47
56 56 56 55 55 54 53 51 50 49 48 47 47 46 45 44 44 43 41 39 38 36 35 34 34 35 36 37 38 39 40 41 43 44 44 45 44 44
54 54 53 53 53 52 51 50 49 47 46 46 45 45 43 41 40 39 37 36 34 34 31 30 29 31 32 34 35 36 36 36 37 38 39 39 40 41
52 52 51 51 50 49 49 48 46 45 45 44 43 42 40 37 36 35 34 32 31 29 28 26 25 26 26 27 28 29 30 30 31 33 34 35 36 37
50 49 49 48 47 46 44 43 43 42 42 42 41 39 36 33 33 32 30 28 26 25 24 22 22 22 23 23 24 25 26 26 27 29 31 32 33 34
47 46 46 44 43 42 41 40 39 38 39 39 37 35 32 30 29 28 25 24 23 22 21 20 20 19 18 19 22 23 23 24 26 27 29 29 29 29
44 44 43 42 40 40 39 37 36 35 35 34 33 30 28 27 26 25 22 21 19 17 17 16 17 17 16 17 19 20 22 23 23 24 25 26 27 27
41 41 39 39 38 37 36 34 33 32 31 29 28 26 24 24 23 21 19 18 16 13 12 13 13 14 15 15 16 18 19 20 21 22 22 23 24 23
39 37 36 36 35 34 33 32 31 29 27 26 25 23 21 20 19 17 16 15 13 11 10 11 11 12 13 13 14 15 18 19 20 20 19 18 19 21
36 34 33 32 32 31 31 29 28 27 25 24 23 21 19 18 16 14 13 12 11 10 9 9 9 10 11 11 11 13 15 16 17 17 17 17 16 17
34 32 31 30 29 28 27 26 26 25 23 22 20 17 15 14 13 12 11 10 10 9 9 9 9 9 9 9 9 10 11 13 14 14 14 15 14 14
31 29 28 27 26 25 24 24 24 22 20 17 15 13 11 10 10 10 9 8 9 8 8 8 7 7 7 8 9 9 9 10 12 13 12 12 13 13
28 27 26 25 24 23 22 21 20 18 15 13 11 9 8 7 7 7 7 6 6 5 5 7 7 7 7 8 8 8 9 10 10 10 10 10 10 10
26 25 24 23 21 20 18 17 16 14 11 10 9 8 7 6 6 5 4 3 3 2 4 5 6 6 6 6 6 6 6 7 6 7 7 8 8 9
23 22 21 20 18 17 15 14 12 11 10 9 7 6 5 5 4 3 2 1 2 3 4 5 5 5 5 5 5 5 5 5 6 6 6 6 7 7
20 19 18 17 15 13 11 10 10 9 8 6 5 4 4 4 3 2 1 3 4 5 5 5 4 4 4 3 4 5 5 5 6 6 6 6 6 6
17 16 14 13 11 10 9 8 8 7 6 5 3 3 3 3 2 1 3 4 5 4 4 4 3 3 3 3 4 4 5 4 5 5 5 6 6 6
13 12 11 10 9 8 7 6 6 5 4 3 2 2 2 2 2 3 4 4 4 4 4 4 3 3 4 4 5 5 5 5 5 6 5 6 6 7
10 9 8 8 7 7 6 6 5 5 4 3 2 2 2 1 2 3 3 3 4 4 4 4 5 5 5 6 6 7 7 6 6 7 6 7 8 9

GEFSNE_500_meanwind_222.txt.gz
Wind_Speed
52 53 53 53 55 56 57 58 59 58 56 55 56 56 57 57 58 59 58 58 57 56 56 57 57 57 57 56 56 54 54 54 55 56 57 58 58 58
53 53 53 54 56 57 58 59 60 60 59 56 55 55 55 56 57 57 56 54 53 53 54 54 54 53 53 53 53 52 53 52 53 53 53 54 55 55
53 53 54 55 55 56 57 58 58 59 59 56 54 53 54 54 54 54 52 52 51 51 51 51 50 49 49 49 50 50 51 51 51 51 51 51 51 52
52 53 54 55 55 56 56 57 57 57 57 54 52 52 52 52 51 50 50 49 49 49 49 48 47 47 46 45 46 47 48 48 48 48 48 48 48 48
52 53 53 54 54 54 55 55 55 55 54 53 51 51 50 50 49 48 47 46 46 47 45 45 45 44 43 43 42 42 43 43 44 44 43 43 44 44
51 51 52 52 52 52 53 53 53 52 52 51 50 49 49 48 48 46 44 43 43 43 42 42 41 40 39 37 37 37 37 38 39 39 39 39 40 40
50 50 50 50 50 51 51 50 50 50 49 49 47 46 45 44 44 43 41 40 39 39 38 37 35 33 32 32 31 30 30 30 31 31 33 34 34 34
48 48 48 48 48 48 48 48 48 48 47 46 45 44 43 42 41 40 39 37 36 35 34 31 29 29 28 27 26 25 25 24 24 25 27 28 28 29
46 46 47 47 47 47 47 47 47 47 46 44 43 42 40 39 39 37 36 35 33 31 29 28 27 26 24 22 20 20 20 20 20 21 22 24 24 25
45 46 46 47 47 46 46 45 44 42 42 42 41 39 38 37 37 36 34 32 29 27 27 26 25 23 20 18 17 17 17 17 17 18 19 21 23 24
44 45 45 46 46 45 44 42 40 40 40 39 38 37 36 35 34 33 30 27 26 26 26 25 22 19 16 15 14 13 13 13 14 15 18 19 21 23
43 44 45 45 44 42 41 39 39 38 37 35 34 33 33 31 30 28 26 25 24 24 23 21 19 16 15 14 14 12 12 13 14 15 16 17 18 20
42 43 43 42 40 39 38 37 37 36 34 32 31 29 28 27 26 25 24 23 23 22 20 18 16 15 14 12 10 10 11 11 12 14 15 16 16 18
40 40 39 38 37 36 35 35 34 32 30 29 27 25 24 23 23 22 21 21 21 20 17 16 14 12 11 10 8 8 9 9 10 12 13 14 14 15
37 37 36 35 33 33 32 31 30 28 26 24 22 21 21 21 21 19 19 19 18 16 14 12 11 10 10 9 7 6 7 9 10 11 12 12 12 13
36 35 34 32 31 31 29 28 26 24 22 21 20 19 19 19 18 17 16 15 14 12 11 10 10 9 9 7 6 6 6 7 9 10 9 10 10 10
33 32 31 30 30 28 26 24 23 22 20 19 18 17 17 17 16 15 13 12 12 10 9 9 8 8 6 4 4 5 5 6 6 7 7 7 8 9
31 29 29 28 26 24 23 22 20 19 18 17 17 16 16 16 15 13 11 11 10 9 8 7 6 6 4 2 2 4 5 6 7 7 7 6 7 7
28 27 26 25 24 22 20 19 18 17 17 17 16 15 15 14 12 10 9 9 9 8 7 6 5 4 1 1 4 5 6 6 7 8 7 6 6 6
26 25 24 23 22 20 18 17 17 16 16 16 15 15 14 13 11 8 7 7 7 7 6 5 3 2 1 3 5 6 7 7 8 8 7 6 5 6
22 21 21 20 19 18 16 16 15 15 15 14 14 14 13 11 9 8 7 6 5 5 5 3 2 3 4 5 6 6 7 7 7 7 7 6 6 6
19 18 18 17 16 15 15 14 14 14 13 13 13 12 10 9 7 6 6 5 5 4 2 2 3 4 5 5 5 5 6 7 8 8 8 7 8 10
17 16 15 15 14 14 13 13 12 11 11 11 11 9 8 7 5 4 4 4 2 1 1 2 3 4 4 5 5 5 6 8 8 9 10 11 13 13

GEFSNE_500_meanwind_228.txt.gz
Wind_Speed
47 49 50 50 51 52 52 53 55 55 54 55 57 58 58 58 58 58 59 58 58 59 60 60 61 59 58 57 56 54 53 52 52 53 53 53 54 55
48 48 49 50 51 51 52 54 55 57 57 56 57 57 57 57 57 58 58 58 58 59 59 58 57 55 55 53 52 50 49 49 49 49 48 47 49 50
48 49 49 50 50 51 53 54 56 58 59 57 57 56 56 56 57 57 57 56 56 56 55 55 53 52 51 50 49 48 48 48 47 46 45 44 45 46
48 49 50 50 51 52 53 54 55 57 58 57 55 55 56 56 55 55 54 54 54 53 52 50 49 48 48 47 47 47 46 45 44 44 43 42 42 42
48 49 50 50 51 52 53 54 55 56 56 57 55 55 54 54 53 52 51 50 50 49 48 47 45 46 46 45 44 44 43 42 41 40 40 39 39 38
49 50 50 50 51 52 52 53 54 55 55 55 54 53 51 51 50 49 47 46 46 46 45 44 42 42 41 40 39 39 38 38 37 36 36 36 35 35
48 49 49 50 51 52 52 53 53 54 54 53 51 49 48 47 46 46 45 44 43 43 42 40 38 37 36 36 35 35 34 34 33 32 32 32 30 29
49 49 49 50 51 51 51 52 53 53 51 50 48 47 45 45 45 44 44 42 41 40 38 35 34 33 33 33 33 32 31 30 30 29 28 26 25 23
49 49 49 50 50 50 50 50 51 50 48 47 46 44 44 44 43 42 41 40 38 37 34 32 31 32 32 32 31 29 28 28 27 25 23 21 20 20
49 49 49 48 48 48 47 47 47 46 45 44 43 43 42 42 40 39 38 37 35 34 32 30 28 29 30 29 28 26 25 24 22 19 18 16 15 15
48 48 47 46 46 46 46 46 45 42 41 41 40 40 40 39 37 37 37 35 32 31 30 28 27 27 27 26 25 24 22 20 18 16 13 11 10 10
45 44 44 44 44 44 44 43 40 38 38 37 37 38 37 36 36 35 35 33 31 28 27 27 26 25 23 23 23 21 19 17 15 13 11 8 7 8
43 42 42 42 42 42 41 40 38 37 36 35 35 34 34 33 33 33 33 31 29 27 26 25 24 23 23 21 20 18 17 15 13 11 9 8 7 7
40 40 40 40 39 39 39 37 36 35 34 34 33 32 31 31 31 31 30 29 28 27 25 24 23 23 22 21 19 17 15 13 10 8 8 6 5 5
38 38 38 37 37 37 36 35 34 33 32 31 31 30 30 29 28 28 28 27 25 25 24 23 22 22 21 19 18 15 12 10 9 8 7 5 3 3
36 36 36 36 35 34 33 33 32 31 30 30 29 28 27 27 27 27 26 25 22 21 22 21 20 19 18 17 15 12 10 10 8 7 5 3 2 1
35 35 35 34 33 32 32 31 30 29 29 29 28 27 25 25 25 25 24 23 21 18 18 18 17 16 15 12 11 9 9 9 8 6 4 3 2 2
34 34 33 33 32 31 30 30 29 28 27 26 25 25 23 23 23 23 22 21 18 16 15 14 13 12 11 9 9 9 9 8 7 5 4 3 4 5
33 32 32 32 30 29 28 28 27 26 25 24 24 23 23 22 22 21 20 18 16 14 13 12 11 11 9 8 7 7 8 7 6 5 5 5 6 7
31 30 30 29 28 28 27 27 26 24 23 22 22 21 21 20 19 18 17 14 13 12 12 12 10 9 8 7 6 6 6 6 6 6 6 7 8 8
29 28 28 28 27 26 25 24 23 22 21 20 20 20 19 18 17 16 14 12 11 11 10 9 8 8 7 6 6 6 6 6 6 6 8 8 9 9
27 26 26 25 24 23 22 21 21 20 19 19 18 18 17 16 15 13 12 10 9 8 7 7 6 7 6 5 5 7 8 9 9 9 9 10 10 10
24 24 23 22 21 20 19 19 19 18 17 17 17 16 15 14 12 10 9 8 8 7 6 5 5 6 6 6 6 7 9 10 10 10 11 11 11 11

GEFSNE_500_meanwind_234.txt.gz
Wind_Speed
44 45 45 46 47 48 49 50 51 50 49 50 51 52 53 54 55 55 55 56 57 57 58 58 58 57 57 57 56 54 52 52 52 52 53 53 52 52
45 45 46 46 47 48 49 50 51 51 50 50 51 53 54 54 55 55 56 57 57 57 57 56 55 54 54 53 52 50 48 48 49 49 49 49 49 49
45 46 46 47 47 48 49 50 50 51 51 51 52 53 54 54 54 55 55 56 56 55 54 52 51 51 50 49 48 46 46 46 47 46 46 46 47 47
45 45 46 46 47 48 49 50 50 51 51 52 52 53 53 53 54 54 54 54 53 52 50 49 49 48 47 46 44 43 44 45 45 44 43 42 42 42
44 44 45 46 46 48 48 49 50 51 52 52 52 52 52 52 53 53 53 53 51 49 48 47 47 46 44 42 41 41 42 41 41 40 39 38 38 37
43 44 44 45 46 47 48 49 49 50 51 51 51 51 51 51 51 51 51 49 47 46 45 45 43 42 41 40 39 38 37 35 35 35 35 35 34 34
43 43 44 45 46 47 48 48 49 49 49 49 49 49 49 49 49 49 48 45 43 43 42 40 39 39 39 37 36 34 33 32 32 32 32 31 30 30
42 43 44 45 46 47 47 47 48 48 48 48 48 48 48 48 47 46 45 43 41 40 39 38 37 37 36 34 33 31 30 30 29 29 28 27 26 26
43 44 45 45 45 45 45 46 46 47 47 47 47 46 46 45 44 43 42 41 40 39 37 35 35 34 33 32 30 28 27 27 26 25 26 24 23 23
43 45 45 45 44 45 45 45 45 46 46 45 45 44 43 43 42 41 40 38 37 36 35 34 33 31 31 29 28 26 25 25 25 24 24 23 22 21
43 44 44 44 44 45 45 44 44 44 43 43 42 41 41 41 40 38 37 35 34 34 34 33 31 29 28 27 27 26 24 24 23 23 22 21 20 19
44 44 43 44 44 44 44 43 43 42 41 40 39 39 38 37 36 35 35 35 34 33 32 31 30 28 26 26 25 24 23 23 22 22 20 18 17 15
43 43 43 43 43 43 43 42 41 40 38 37 36 35 34 34 33 34 35 35 33 33 32 30 29 26 25 23 22 22 21 21 21 19 18 16 15 13
42 42 42 42 42 41 40 39 37 36 35 34 33 32 32 32 32 33 34 33 32 31 30 29 26 23 22 21 21 19 19 18 18 17 15 14 12 10
40 41 41 40 40 38 37 36 34 33 32 31 31 31 30 30 31 32 32 31 30 29 28 26 24 22 20 20 19 17 16 15 15 14 13 11 9 8
39 38 38 36 36 35 35 33 32 31 30 30 29 29 29 30 30 30 30 28 27 26 25 24 22 20 19 18 17 15 14 12 12 11 10 9 8 7
35 34 33 33 33 33 31 30 29 29 29 28 28 28 29 29 29 29 27 25 24 22 22 21 20 18 17 16 14 13 11 10 10 9 8 9 8 7
32 31 31 31 31 30 29 29 29 29 28 27 27 28 28 27 26 26 24 23 21 20 20 19 17 16 15 13 12 10 9 8 9 8 8 8 8 7
30 30 30 30 30 29 29 29 28 28 27 27 27 26 26 24 23 23 22 20 19 18 17 16 15 13 12 10 10 9 8 7 7 7 7 7 7 7
30 30 30 30 29 29 28 28 27 26 26 26 25 24 22 21 21 20 19 18 17 15 15 14 12 11 9 8 7 7 7 7 6 6 7 8 7 7
29 29 29 29 28 27 27 26 25 24 24 24 23 21 21 19 19 18 17 16 14 13 12 11 10 8 7 7 6 7 7 7 7 7 8 8 7 7
28 28 28 27 26 26 25 24 23 23 23 22 21 20 18 17 17 16 15 13 12 11 10 9 7 6 6 5 6 7 7 8 8 8 9 9 8 8
27 27 26 25 25 25 23 22 21 21 20 19 18 17 16 16 16 14 13 11 10 8 8 6 5 5 5 5 6 6 8 9 9 9 10 10 11 11

GEFSNE_500_meanwind_240.txt.gz
Wind_Speed
41 41 41 42 42 43 44 44 45 44 44 45 46 47 47 48 50 50 51 52 52 53 54 55 55 56 56 56 55 54 51 49 48 47 46 46 47 47
40 40 41 41 42 42 43 44 45 45 45 46 47 47 47 48 49 50 51 51 52 53 54 55 55 55 54 53 51 48 47 46 45 45 45 45 44 44
40 40 40 40 41 42 43 44 45 46 46 46 47 47 47 48 48 49 50 51 51 52 53 53 53 52 51 48 46 45 43 43 43 43 43 42 42 42
39 39 40 40 41 42 43 44 46 47 47 46 46 47 47 47 48 49 49 50 51 52 52 51 50 48 47 45 44 42 41 41 41 41 42 42 41 40
39 39 40 41 42 43 44 45 46 47 47 47 47 47 47 48 49 49 49 50 51 51 50 49 47 45 43 42 41 41 40 40 39 39 39 39 38 37
40 40 41 42 43 43 44 45 46 47 47 47 47 47 48 48 49 49 49 50 50 49 47 45 44 42 41 40 40 39 39 38 37 36 35 35 34 34
40 41 41 42 43 44 45 47 47 47 47 47 47 48 49 49 49 49 50 49 47 45 42 42 41 41 40 39 38 37 36 35 34 33 32 32 32 31
40 41 42 43 44 45 47 47 47 47 47 48 48 49 49 49 49 49 49 46 43 41 40 39 39 39 39 38 37 36 35 34 33 32 32 31 30 29
40 41 42 43 44 45 46 46 47 47 47 48 48 48 48 48 48 47 45 42 40 39 38 37 38 38 36 36 35 34 33 32 31 30 30 29 28 26
41 42 43 44 44 45 45 45 46 46 46 47 47 47 46 46 45 43 40 38 38 38 38 37 36 35 34 34 32 31 30 29 28 27 27 26 25 24
41 42 43 44 45 45 45 45 45 45 45 45 46 45 44 43 41 39 37 36 36 36 36 36 34 32 32 32 30 29 28 27 26 25 25 25 24 22
42 42 43 44 44 44 45 45 44 44 43 43 43 42 41 39 37 36 35 36 36 35 34 34 32 30 28 28 28 26 26 26 25 24 24 24 23 21
42 43 43 44 44 44 44 44 44 43 42 42 41 39 38 35 34 34 34 35 35 34 33 31 30 29 28 26 25 23 23 23 23 22 22 22 20 19
42 43 43 43 43 43 42 42 42 42 41 40 38 37 34 33 32 33 33 34 34 32 31 30 29 28 26 24 22 21 22 22 21 20 19 19 18 17
42 42 42 42 41 41 40 40 41 40 39 37 35 33 31 31 30 31 31 31 31 30 29 29 27 26 24 23 21 20 21 20 19 18 17 17 16 15
39 39 39 39 39 39 39 39 39 38 36 34 32 30 29 28 29 29 29 29 29 28 27 26 26 24 22 21 20 20 20 19 17 15 15 16 16 14
37 37 37 37 37 37 37 37 36 34 32 31 29 28 27 27 28 28 27 27 27 26 24 23 23 22 20 20 19 19 18 17 15 15 15 15 14 13
35 35 35 35 35 35 34 33 33 31 30 28 27 26 26 26 27 26 25 26 25 24 22 21 20 19 18 18 17 16 16 15 15 14 14 13 13 12
33 33 33 33 32 32 31 30 30 29 28 26 25 25 26 26 25 24 24 24 23 21 20 19 19 18 16 15 15 14 14 13 13 13 13 12 12 11
31 31 31 30 29 29 29 29 28 28 26 25 24 25 25 25 24 23 23 22 20 19 17 17 17 16 14 14 13 12 12 12 12 11 11 11 11 11
29 29 29 28 28 28 28 28 27 26 25 24 24 24 24 24 23 21 20 18 18 17 15 14 14 14 13 13 12 11 11 11 11 11 11 11 10 10
28 27 27 27 27 27 27 27 26 25 24 23 23 23 22 21 19 17 16 15 15 15 13 12 12 12 11 10 10 10 10 11 11 11 11 11 11 11
27 26 26 26 26 26 26 25 23 22 21 21 21 20 19 17 15 14 14 13 13 12 11 11 10 10 9 8 8 9 10 11 11 11 11 11 11 13

GEFSNE_500_meanwind_246.txt.gz
Wind_Speed
39 39 40 40 40 40 40 41 40 40 40 41 43 44 46 46 46 47 47 47 47 48 48 49 49 48 48 48 48 48 47 46 46 44 43 44 44 43
40 40 40 39 39 40 40 41 41 41 41 42 43 44 46 46 46 47 47 47 48 49 49 49 48 48 48 48 47 46 45 43 42 42 42 41 41 40
40 40 39 39 39 39 40 40 41 42 43 43 44 45 46 46 47 47 48 49 49 49 49 49 48 48 48 47 45 44 42 41 41 41 41 40 40 40
40 40 39 39 39 39 40 40 41 43 43 43 44 46 46 46 47 48 49 49 49 49 49 49 48 48 47 45 43 42 41 41 41 41 40 40 40 41
40 39 39 39 39 40 40 41 42 43 44 44 45 46 46 47 47 48 48 49 49 50 50 49 48 47 45 43 42 41 41 41 41 40 39 39 39 39
39 39 39 39 40 40 41 42 42 43 44 45 46 46 47 47 48 48 48 48 48 48 48 48 46 45 43 42 42 41 41 40 39 38 37 36 36 36
39 38 39 39 40 40 41 42 42 43 45 46 46 47 47 47 48 48 48 47 47 47 46 45 44 43 42 41 41 40 39 38 36 35 34 33 33 33
39 39 39 40 40 40 41 42 43 44 45 46 46 47 47 48 48 48 48 47 44 44 43 41 41 41 40 40 39 39 37 35 33 32 31 31 30 30
39 39 39 39 40 40 42 43 43 44 45 46 47 47 47 47 47 47 46 44 42 41 40 39 39 39 38 38 37 36 34 32 30 30 30 30 29 28
39 39 39 39 40 40 41 42 44 45 45 45 47 47 47 46 46 45 43 41 40 39 38 38 37 37 36 35 35 33 32 30 29 29 29 28 27 26
38 39 39 40 40 41 42 43 44 44 44 45 46 46 45 45 44 42 40 38 36 36 37 36 34 34 34 33 32 31 30 29 28 28 27 26 24 23
38 39 39 40 40 41 42 43 43 43 44 44 44 44 44 42 41 39 37 35 34 35 34 33 33 32 30 30 30 29 28 28 28 27 25 24 22 20
38 38 39 40 40 41 42 42 42 43 43 43 43 42 41 38 37 36 34 34 33 33 32 32 31 30 29 28 28 27 26 26 25 24 23 21 21 21
38 38 39 40 41 41 41 41 41 41 41 41 40 39 37 35 34 34 33 33 32 31 31 31 30 29 27 26 26 25 25 24 23 21 20 20 20 20
38 38 38 38 40 40 40 40 40 40 40 39 38 37 35 34 32 32 32 31 29 29 30 29 29 27 26 25 24 23 22 21 20 19 18 18 18 18
37 37 37 38 38 38 39 39 39 38 37 37 36 34 32 31 31 30 29 28 27 28 29 28 27 25 24 23 23 23 21 19 18 18 17 17 16 16
36 36 37 37 37 37 37 37 36 36 35 34 33 31 30 30 29 28 27 27 27 27 27 26 24 23 21 21 20 20 19 18 17 17 16 15 15 15
35 35 35 35 35 34 34 34 34 34 33 31 30 29 29 29 27 26 26 26 26 25 24 22 22 20 19 18 18 18 18 17 16 15 15 15 14 13
34 34 34 33 32 32 32 32 32 31 30 29 28 28 28 27 25 24 25 24 24 23 21 20 19 18 16 16 16 16 15 15 14 13 13 13 12 12
33 32 32 31 30 30 30 30 30 29 28 28 27 27 25 24 23 22 22 22 21 20 20 18 17 16 15 15 14 14 13 13 13 12 12 12 12 12
31 30 29 28 28 28 28 28 28 27 27 27 25 24 22 21 21 20 20 20 19 18 17 16 15 15 14 13 12 11 11 12 13 12 11 11 11 11
29 28 27 27 27 27 26 26 26 26 26 25 24 22 20 20 19 18 18 17 16 15 14 13 13 12 12 11 10 10 10 11 11 10 11 11 11 11
27 26 26 25 25 25 24 24 24 24 24 22 21 20 19 18 17 16 15 14 12 12 11 11 11 10 9 9 8 8 9 9 10 10 10 11 11 12

GEFSNE_500_meanwind_252.txt.gz
Wind_Speed
39 39 40 40 41 41 42 42 42 42 41 42 43 44 45 45 46 47 48 50 50 49 50 50 49 49 49 50 49 50 50 49 48 46 44 42 42 42
39 39 40 41 41 41 42 42 42 42 42 42 43 44 45 46 47 48 49 50 50 51 52 51 51 50 51 51 50 50 49 47 45 43 41 41 41 41
40 40 40 41 42 42 42 42 42 42 42 41 42 43 45 46 47 49 50 50 51 52 52 52 51 51 51 49 48 47 45 43 41 41 41 41 40 40
40 41 41 41 41 41 41 41 41 41 42 41 42 44 45 46 48 49 50 51 52 53 52 52 51 50 48 46 44 43 43 41 40 40 40 40 40 39
40 40 40 40 41 40 40 40 41 41 41 42 42 44 45 46 48 49 49 51 52 52 51 49 48 46 44 43 43 42 41 40 40 40 39 39 38 37
38 39 40 40 39 39 40 40 41 41 42 42 43 44 45 47 48 48 49 50 49 48 47 45 43 43 42 43 42 41 39 39 38 38 37 37 37 36
39 39 39 39 39 39 40 40 41 42 42 42 43 43 45 47 48 49 49 47 45 44 42 42 41 41 42 41 40 40 39 38 37 36 35 34 35 34
39 39 39 38 38 39 40 40 40 41 42 42 43 44 46 48 48 48 47 44 41 41 40 41 42 42 42 41 40 39 38 37 36 34 33 32 32 31
38 38 37 38 38 39 39 40 40 41 41 43 44 46 47 48 47 45 43 41 40 40 41 41 42 41 40 39 38 37 36 35 33 31 30 30 29 28
37 37 37 39 39 39 39 39 39 40 42 44 45 46 46 46 44 43 40 40 41 42 41 40 39 39 38 38 37 35 34 32 30 29 29 28 28 26
36 36 37 38 38 39 39 39 40 41 42 44 45 45 44 43 42 41 40 40 40 40 39 39 37 36 35 35 34 33 31 29 29 28 28 27 27 25
36 36 36 37 38 39 40 40 40 41 42 43 42 42 42 41 41 40 40 40 39 39 38 37 36 34 32 31 31 30 29 28 28 28 27 26 25 25
35 36 36 37 38 39 39 40 40 41 41 41 40 40 40 40 40 40 39 39 38 37 37 35 34 33 32 30 28 28 28 27 27 27 26 24 24 24
35 35 36 37 37 38 38 39 39 39 39 39 39 39 39 39 38 38 37 37 36 35 35 34 33 31 29 27 26 26 26 26 25 25 24 23 23 23
35 35 35 36 37 37 37 37 38 38 38 38 38 39 39 38 36 35 35 34 34 34 33 32 30 29 27 26 25 25 24 24 23 22 22 22 21 21
34 34 34 35 35 35 35 35 36 36 37 37 37 38 37 36 34 33 32 32 32 32 31 30 28 27 25 25 24 24 23 22 20 20 20 20 20 19
34 33 34 35 34 33 33 34 35 35 36 36 36 36 35 33 32 32 31 30 30 29 28 27 26 25 24 23 22 22 21 20 20 19 18 18 17 17
32 33 33 32 32 32 32 33 34 34 34 34 34 33 32 31 30 30 28 28 27 26 25 24 23 22 22 21 20 19 18 18 18 17 17 17 16 15
31 31 31 31 31 31 32 32 32 32 32 31 31 30 30 29 27 26 25 25 24 24 23 22 20 20 19 18 16 16 16 16 16 16 16 16 14 13
30 30 30 29 29 29 30 30 30 30 29 29 28 28 27 25 23 23 22 22 22 21 20 19 19 18 17 16 15 15 15 15 14 15 15 14 13 13
28 28 28 28 28 28 28 28 28 27 27 26 26 25 23 22 20 20 20 20 20 19 18 17 17 16 15 14 14 13 13 13 14 14 13 13 12 12
27 27 27 27 27 27 27 26 25 25 25 24 23 22 21 20 19 18 18 18 18 18 17 15 14 13 13 12 12 11 11 12 12 12 12 12 12 12
25 25 25 25 26 26 25 24 24 23 23 23 22 21 19 18 18 18 17 17 17 15 13 12 11 10 10 10 10 11 11 11 11 11 11 12 13 13

GEFSNE_500_meanwind_258.txt.gz
Wind_Speed
38 38 39 39 39 39 39 39 40 41 41 41 41 42 42 42 43 43 44 45 46 46 47 48 48 48 47 47 46 45 44 43 44 44 44 44 42 42
38 38 39 39 39 39 39 40 40 41 40 40 41 41 41 41 42 43 44 45 46 47 48 48 48 47 47 46 45 44 44 42 43 43 42 41 40 40
39 39 39 39 39 38 39 40 40 39 39 40 40 40 41 41 42 43 44 45 46 47 47 47 47 46 45 44 43 43 43 43 42 42 40 39 39 39
39 39 39 39 39 39 39 39 39 39 39 39 39 40 40 41 41 43 44 45 46 47 46 46 45 43 43 42 43 43 43 43 42 41 40 40 39 38
39 39 39 38 38 39 39 39 39 39 39 39 39 40 41 41 42 42 44 45 45 45 45 45 43 42 42 42 42 42 43 42 41 40 40 39 38 38
39 39 38 38 38 38 38 39 39 39 39 40 40 40 41 41 43 43 44 45 45 45 44 43 42 42 41 41 41 42 41 41 40 39 38 38 37 37
39 38 37 37 37 37 37 38 39 39 39 39 39 40 40 41 42 43 43 44 45 44 43 41 41 41 41 41 42 41 40 39 38 38 36 35 35 35
38 38 37 37 37 37 38 38 39 39 39 39 39 40 40 42 42 43 43 43 42 42 41 40 40 41 41 41 41 40 39 38 37 36 34 33 33 33
37 37 37 36 36 37 37 38 38 38 38 39 39 39 40 41 41 41 42 42 41 39 39 39 40 41 41 41 40 38 37 35 34 33 32 31 31 30
37 37 37 36 36 37 37 37 37 36 37 38 38 39 40 40 40 41 40 40 39 39 39 39 39 39 40 39 37 35 34 32 31 30 29 29 28 28
37 37 37 37 37 37 37 37 36 36 37 37 38 39 39 40 40 39 39 39 39 38 39 39 38 37 36 35 34 32 31 30 29 28 28 28 28 27
38 38 38 37 37 36 36 36 36 36 36 36 37 37 38 38 38 38 39 39 38 37 37 36 35 33 31 30 30 29 29 28 27 27 27 26 25 24
37 37 37 36 35 35 35 35 34 34 34 34 35 35 36 36 36 37 37 36 36 35 34 33 31 30 29 27 27 27 27 26 25 25 25 24 23 22
35 36 36 35 34 34 34 33 33 33 33 33 33 33 34 35 35 36 35 34 33 32 31 29 28 27 26 25 25 25 25 24 24 24 23 22 21 21
35 34 34 33 33 33 33 32 31 32 32 31 31 32 33 33 34 33 32 31 31 29 27 26 25 25 25 25 24 24 23 22 22 22 20 18 18 18
34 33 33 32 32 31 30 30 30 30 31 30 31 31 32 32 32 31 29 28 27 25 25 25 24 23 23 23 22 21 21 20 21 20 19 17 17 17
33 33 32 31 31 29 28 28 28 29 29 29 30 29 30 30 29 28 27 25 24 23 23 23 22 21 21 21 20 19 18 18 19 18 17 16 16 16
31 31 30 29 29 28 28 27 28 28 28 28 28 28 28 27 27 25 24 23 22 22 22 20 18 19 19 19 18 17 17 17 17 16 16 16 15 14
28 28 27 27 27 27 27 27 27 27 26 25 25 25 26 25 24 23 22 21 21 20 19 17 17 17 17 16 16 16 16 15 15 14 14 14 14 13
26 26 26 25 25 25 26 26 25 24 23 24 24 24 23 23 22 21 21 20 19 18 16 16 16 16 15 15 14 14 14 14 13 13 13 13 13 13
25 25 24 24 24 24 24 23 23 22 22 23 22 22 21 21 20 20 19 18 17 15 14 14 15 15 14 13 12 13 12 12 12 12 13 12 12 11
24 23 23 23 23 23 22 21 21 21 21 21 20 20 20 20 19 18 17 16 15 14 13 13 13 13 12 12 11 11 10 10 11 11 12 12 11 11
23 23 23 23 23 22 21 20 20 20 20 20 20 19 19 19 18 17 16 15 14 12 12 11 11 11 10 10 9 9 8 9 10 10 10 11 11 12

GEFSNE_500_meanwind_264.txt.gz
Wind_Speed
41 41 43 42 41 41 41 40 40 40 40 40 42 43 43 43 44 44 44 45 45 46 47 47 48 48 49 48 48 47 45 44 44 43 42 42 41 42
41 41 41 40 40 40 40 40 39 39 39 40 41 42 42 43 44 44 44 45 46 47 48 48 48 48 48 47 46 45 45 44 43 43 42 42 43 43
42 42 41 40 40 40 39 38 38 39 39 39 40 41 42 43 42 43 43 44 45 47 47 47 48 48 47 47 46 44 43 43 43 42 42 42 42 42
41 40 40 39 38 38 38 38 38 38 39 38 39 41 41 41 41 42 43 44 45 46 46 47 47 48 47 45 44 42 42 42 42 42 42 41 41 41
39 38 37 37 37 37 37 38 38 39 39 39 38 39 39 39 40 41 42 43 45 46 46 47 47 46 45 43 42 41 42 41 41 41 41 40 40 39
37 37 37 37 37 37 38 38 38 38 39 38 38 38 38 39 40 41 41 42 44 44 45 46 45 44 42 41 40 40 40 39 39 39 39 38 38 37
36 36 36 36 36 37 37 37 37 37 38 38 38 38 39 40 40 41 41 42 42 43 44 43 42 41 39 39 38 38 37 37 37 37 37 36 36 35
36 36 36 36 36 36 37 36 37 37 37 38 38 38 39 39 40 40 41 42 41 42 41 40 39 38 37 36 36 36 35 36 36 35 34 33 32 32
36 36 36 36 37 37 37 37 37 37 37 37 37 38 39 40 40 40 41 41 40 39 37 36 36 35 35 34 34 34 34 34 33 32 31 30 30 29
36 36 36 36 37 37 37 37 36 37 37 37 37 38 40 40 40 40 40 39 38 36 35 34 33 32 32 32 31 32 32 31 30 29 29 28 27 28
35 36 36 36 35 36 36 36 36 37 37 37 38 38 38 38 38 37 36 35 34 34 34 33 31 30 30 30 29 29 29 29 29 28 28 27 27 27
35 35 35 35 35 35 35 35 35 35 35 35 36 36 36 36 35 34 34 33 32 31 31 30 30 29 27 27 28 28 28 28 28 27 27 27 26 26
33 33 33 33 33 33 34 34 34 33 33 33 34 34 34 33 33 32 32 31 30 29 29 28 28 27 27 25 26 27 27 27 26 26 26 26 25 25
32 32 32 31 31 32 32 32 32 32 32 32 32 32 31 31 31 31 30 30 28 27 27 27 26 25 25 24 25 26 26 25 25 24 24 24 24 24
33 32 32 31 31 31 30 30 31 31 30 30 29 29 29 29 29 29 29 27 26 26 26 26 25 24 24 24 25 24 24 24 24 23 23 22 22 21
33 32 31 31 30 30 29 30 30 29 29 28 28 27 27 27 27 27 26 25 25 25 25 25 24 24 23 23 24 24 23 22 22 21 21 21 21 19
31 31 31 30 30 29 29 28 28 28 27 27 26 25 25 26 26 25 25 24 24 24 23 23 23 23 23 22 23 23 22 21 20 19 19 19 18 17
28 29 29 29 29 28 28 27 27 26 26 25 25 24 25 25 24 24 24 24 23 23 22 21 21 21 21 22 22 21 20 19 18 17 17 17 16 16
25 26 26 26 27 27 26 26 25 25 24 23 23 23 23 24 24 23 23 23 22 21 21 20 20 20 20 20 19 19 18 17 16 15 15 15 15 15
23 24 24 24 24 24 24 24 24 24 23 22 22 22 22 22 22 22 21 21 21 20 20 19 19 18 18 18 18 16 16 16 14 13 13 13 13 14
22 22 22 22 22 22 22 22 22 22 21 21 21 21 21 21 21 20 19 19 19 19 18 17 17 16 16 16 15 14 14 13 12 11 11 12 13 13
21 21 21 21 21 20 20 21 21 20 19 18 19 19 19 19 19 18 18 17 17 16 15 15 14 13 14 14 12 12 11 10 9 10 10 12 12 12
20 20 20 19 19 19 18 18 17 16 16 16 16 17 17 17 17 16 15 15 14 13 12 11 11 10 10 10 9 9 8 8 8 10 11 11 12 14